EW2985 Weather Reports


Display with metric or nautical units.
time (UTC)temp
F
wind
direction
speed
MPH
gust
MPH
rain 1hr
in
rain 24hr
in
rain mn
in
humidity
%
barometer
mb
20260505021513 64 349 0.0 1.0 0.00 0.00 0.00 54 1009.0
20260505020011 65 202 0.0 2.0 0.00 0.00 0.00 53 1009.1
20260505014505 65 90 0.0 2.0 0.00 0.00 0.00 52 1009.3
20260505013004 65 146 0.0 1.0 0.00 0.00 0.00 50 1009.2
20260505011503 66 96 0.0 2.0 0.00 0.00 0.00 49 1009.1
20260505004600 66 13 0.0 3.0 0.00 0.00 0.00 47 1008.7
20260505003100 67 249 0.0 3.0 0.00 0.00 0.00 46 1008.7
20260505001601 68 58 0.0 2.0 0.00 0.00 0.00 44 1008.6
20260505000115 69 252 1.0 4.0 0.00 0.00 0.00 42 1008.6
20260504234556 70 255 0.0 4.0 0.00 0.00 0.00 40 1008.6
20260504233100 73 235 0.0 2.0 0.00 0.00 0.00 38 1008.5
20260504231556 75 25 0.0 3.0 0.00 0.00 0.00 36 1008.5
20260504230106 77 239 0.0 3.0 0.00 0.00 0.00 34 1008.5
20260504224553 78 233 0.0 3.0 0.00 0.00 0.00 34 1008.6
20260504223056 78 259 0.0 2.0 0.00 0.00 0.00 34 1008.6
20260504221601 79 248 1.0 3.0 0.00 0.00 0.00 33 1008.5
20260504220055 80 212 0.0 3.0 0.00 0.00 0.00 33 1008.6
20260504214550 80 35 1.0 3.0 0.00 0.00 0.00 32 1008.6
20260504213047 79 240 1.0 5.0 0.00 0.00 0.00 31 1008.6
20260504211547 78 269 0.0 7.0 0.00 0.00 0.00 33 1008.6
20260504210046 79 226 1.0 4.0 0.00 0.00 0.00 31 1008.6
20260504204542 78 236 1.0 6.0 0.00 0.00 0.00 32 1008.7
20260504203041 79 8 1.0 5.0 0.00 0.00 0.00 32 1008.8
20260504201540 78 57 2.0 5.0 0.00 0.00 0.00 30 1009.0
20260504200036 77 267 2.0 6.0 0.00 0.00 0.00 33 1009.1
20260504194536 76 312 1.0 8.0 0.00 0.00 0.00 33 1009.5
20260504193033 77 226 3.0 8.0 0.00 0.00 0.00 33 1009.6
20260504191529 76 274 1.0 5.0 0.00 0.00 0.00 33 1009.9
20260504190025 75 231 3.0 6.0 0.00 0.00 0.00 34 1010.1
20260504184523 75 91 2.0 6.0 0.00 0.00 0.00 32 1010.3
20260504183020 74 235 1.0 8.0 0.00 0.00 0.00 35 1010.5
20260504181518 74 232 2.0 5.0 0.00 0.00 0.00 34 1010.5
20260504180015 73 235 2.0 7.0 0.00 0.00 0.00 35 1010.8
20260504174513 72 39 0.0 6.0 0.00 0.00 0.00 38 1010.9
20260504173010 73 208 2.0 6.0 0.00 0.00 0.00 36 1011.2
20260504171507 71 259 0.0 4.0 0.00 0.00 0.00 40 1011.5
20260504081537 47 261 0.0 2.0 0.00 0.00 0.00 57 1014.3
20260504050016 49 276 0.0 2.0 0.00 0.00 0.00 55 1014.5
20260504044515 49 228 0.0 1.0 0.00 0.00 0.00 56 1014.5
20260504043014 49 226 0.0 2.0 0.00 0.00 0.00 55 1014.4
20260504041511 50 246 0.0 2.0 0.00 0.00 0.00 54 1014.3
20260504040008 50 246 0.0 2.0 0.00 0.00 0.00 53 1014.1
20260504034508 50 259 0.0 1.0 0.00 0.00 0.00 53 1014.2
20260504033009 51 257 0.0 0.0 0.00 0.00 0.00 52 1014.1
20260504031507 51 250 1.0 2.0 0.00 0.00 0.00 51 1014.1
20260504030006 51 255 0.0 1.0 0.00 0.00 0.00 52 1014.0
20260504024505 51 253 0.0 2.0 0.00 0.00 0.00 52 1013.9
20260504023005 52 255 0.0 1.0 0.00 0.00 0.00 51 1013.9